Tracking 19181 objects as of 17-Jun-2018
HD Live streaming from Space Station
objects crossing your sky now

FENGYUN 1C DEB

Track FENGYUN 1C DEB now!
10-day predictions


NORAD ID: 30813
Int'l Code: 1999-025AUX
Perigee: 614.2 km
Apogee: 697.5 km
Inclination: 98.9 °
Period: 97.7 minutes
Semi major axis: 7026 km
RCS: 0.0204 m2 (small)
Launch date: May 10, 1999
Source: People's Republic of China (PRC)
Launch site: Taiyaun Space Center, China (TSC)

Note: This is SATELLITE DEBRIS
aabbcc
Your satellite tracking list
Your tracking list is empty




NASA's NSSDC Master Catalog

Two Line Element Set (TLE):
1 30813U 99025AUX 18168.48679991  .00002061  00000-0  31506-3 0  9994
2 30813  98.9058  94.5080 0059336  84.8771 275.9203 14.73878689597687
Source of the keplerian elements: AFSPC